Weather History for KBCB - February, 2013

Change the Weather History Date:

Sunday, February 24, 2013

  Actual Average Record
Temperature  
Mean Temperature 41 °F 36 °F  
Max Temperature 49 °F 47 °F 73 °F (1975)
Min Temperature 32 °F 25 °F 6 °F (1968)
Degree Days  
Heating Degree Days 24 29  
Month to date heating degree days 754 747  
Since 1 July heating degree days 3735 3934  
Cooling Degree Days 0 0  
Month to date cooling degree days 0 0  
Year to date cooling degree days 0 0  
Moisture  
Dew Point 31 °F    
Average Humidity 68    
Maximum Humidity 100    
Minimum Humidity 36    
Precipitation  
Precipitation 0.00 in 0.10 in 1.35 in (1984)
Month to date precipitation 0.89 2.42  
Year to date precipitation 8.63 5.50  
Snow  
Snow 0.00 in - - ()
Month to date snowfall 5.7  
Since 1 July snowfall 17.4  
Snow Depth 0.00 in    
Sea Level Pressure  
Sea Level Pressure 29.94 in    
Wind  
Wind Speed 9 mph (WNW)    
Max Wind Speed 15 mph    
Max Gust Speed 24 mph    
Visibility 10 miles    
Events      
T = Trace of Precipitation, MM = Missing Value Source: NWS Daily Summary

Daily Weather History Graph

Daily Weather History Graph

Search for Another Location

Airport or City:

Trip Planner

Search our weather history database for the weather conditions in past years. The results will help you decide how hot, cold, wet, or windy it might be!

Date:

Astronomy

Feb. 24, 2013 Rise Set
Actual Time 6:59 AM EST 6:11 PM EST
Civil Twilight 6:32 AM EST 6:37 PM EST
Nautical Twilight 6:02 AM EST 7:07 PM EST
Astronomical Twilight 5:32 AM EST 7:37 PM EST
Moon 5:20 PM EST 5:54 AM EST
Length of Visible Light 12h 04m
Length of Day
11h 11m
Waxing Gibbous, 99% of the Moon is Illuminated
Feb 24
Waxing Gibbous
Feb 25
Full
Mar 4
Last Quarter
Mar 11
New
Mar 19
First Quarter

Hourly Weather History & Observations

Time (EST) Temp. Windchill Dew Point Humidity Pressure Visibility Wind Dir Wind Speed Gust Speed Precip Events Conditions
12:15 AM 39.2 °F - 39.2 °F 100% 29.84 in 2.5 mi Calm Calm - N/A   Clear
12:35 AM 39.2 °F - 39.2 °F 100% 29.84 in 3.0 mi Calm Calm - N/A   Clear
12:55 AM 39.2 °F - 39.2 °F 100% 29.84 in 5.0 mi Calm Calm - N/A   Mostly Cloudy
1:15 AM 42.8 °F 41.1 °F 42.8 °F 100% 29.84 in 10.0 mi West 3.5 mph - N/A   Overcast
1:35 AM 44.6 °F 43.1 °F 42.8 °F 93% 29.85 in 10.0 mi West 3.5 mph - N/A   Mostly Cloudy
1:55 AM 42.8 °F 41.1 °F 41.0 °F 93% 29.84 in 10.0 mi West 3.5 mph - N/A   Clear
2:15 AM 42.8 °F 41.1 °F 39.2 °F 87% 29.84 in 10.0 mi West 3.5 mph - N/A   Clear
2:35 AM 41.0 °F - 39.2 °F 93% 29.83 in 10.0 mi Calm Calm - N/A   Mostly Cloudy
2:55 AM 42.8 °F 39.3 °F 39.2 °F 87% 29.83 in 10.0 mi West 5.8 mph - N/A   Mostly Cloudy
3:15 AM 42.8 °F 38.0 °F 39.2 °F 87% 29.85 in 10.0 mi West 8.1 mph - N/A   Scattered Clouds
3:35 AM 42.8 °F 38.6 °F 37.4 °F 81% 29.84 in 10.0 mi WNW 6.9 mph - N/A   Scattered Clouds
3:55 AM 42.8 °F 39.3 °F 37.4 °F 81% 29.84 in 10.0 mi WNW 5.8 mph - N/A   Clear
4:15 AM 42.8 °F 37.5 °F 37.4 °F 81% 29.85 in 10.0 mi WNW 9.2 mph - N/A   Clear
4:35 AM 42.8 °F 38.0 °F 37.4 °F 81% 29.85 in 10.0 mi WNW 8.1 mph - N/A   Clear
4:55 AM 41.0 °F 37.1 °F 35.6 °F 81% 29.86 in 10.0 mi WNW 5.8 mph - N/A   Clear
5:15 AM 41.0 °F 36.4 °F 35.6 °F 81% 29.86 in 10.0 mi West 6.9 mph 17.3 mph N/A   Clear
5:35 AM 39.2 °F 35.0 °F 35.6 °F 87% 29.87 in 10.0 mi WNW 5.8 mph - N/A   Clear
5:55 AM 39.2 °F 37.0 °F 35.6 °F 87% 29.88 in 10.0 mi West 3.5 mph - N/A   Clear
6:15 AM 39.2 °F 33.0 °F 33.8 °F 81% 29.89 in 10.0 mi WNW 9.2 mph - N/A   Clear
6:35 AM 37.4 °F 29.8 °F 33.8 °F 87% 29.90 in 10.0 mi West 11.5 mph 16.1 mph N/A   Clear
6:55 AM 37.4 °F 31.4 °F 33.8 °F 87% 29.90 in 10.0 mi WNW 8.1 mph - N/A   Clear
7:15 AM 39.2 °F 32.5 °F 33.8 °F 81% 29.92 in 10.0 mi WNW 10.4 mph 16.1 mph N/A   Scattered Clouds
7:35 AM 39.2 °F 31.2 °F 32.0 °F 75% 29.92 in 10.0 mi WNW 13.8 mph 24.2 mph N/A   Scattered Clouds
7:55 AM 39.2 °F 32.0 °F 32.0 °F 75% 29.93 in 10.0 mi WNW 11.5 mph 21.9 mph N/A   Clear
8:15 AM 39.2 °F 30.8 °F 32.0 °F 75% 29.93 in 10.0 mi WNW 15.0 mph 19.6 mph N/A   Clear
8:35 AM 39.2 °F 30.5 °F 30.2 °F 70% 29.95 in 10.0 mi WNW 16.1 mph 24.2 mph N/A   Clear
8:55 AM 39.2 °F 31.6 °F 30.2 °F 70% 29.95 in 10.0 mi WNW 12.7 mph 24.2 mph N/A   Clear
9:15 AM 41.0 °F 33.5 °F 30.2 °F 65% 29.96 in 10.0 mi WNW 13.8 mph 24.2 mph N/A   Clear
9:35 AM 42.8 °F 36.2 °F 30.2 °F 61% 29.96 in 10.0 mi WNW 12.7 mph 20.7 mph N/A   Clear
9:55 AM 42.8 °F 35.4 °F 30.2 °F 61% 29.95 in 10.0 mi WNW 15.0 mph 19.6 mph N/A   Clear
10:15 AM 42.8 °F 37.0 °F 32.0 °F 66% 29.96 in 10.0 mi NW 10.4 mph 19.6 mph N/A   Clear
10:35 AM 44.6 °F 39.2 °F 32.0 °F 61% 29.95 in 10.0 mi NW 10.4 mph 17.3 mph N/A   Clear
10:55 AM 44.6 °F 38.4 °F 30.2 °F 57% 29.95 in 10.0 mi West 12.7 mph 19.6 mph N/A   Clear
11:15 AM 44.6 °F 38.1 °F 30.2 °F 57% 29.96 in 10.0 mi WNW 13.8 mph 20.7 mph N/A   Clear
11:35 AM 46.4 °F 40.7 °F 30.2 °F 53% 29.96 in 10.0 mi WNW 12.7 mph 20.7 mph N/A   Clear
11:55 AM 46.4 °F 40.7 °F 30.2 °F 53% 29.95 in 10.0 mi NW 12.7 mph 23.0 mph N/A   Clear
12:15 PM 48.2 °F - 32.0 °F 54% 29.94 in 10.0 mi West 9.2 mph 17.3 mph N/A   Clear
12:35 PM 48.2 °F - 30.2 °F 50% 29.95 in 10.0 mi WNW 13.8 mph 17.3 mph N/A   Clear
12:55 PM 48.2 °F - 30.2 °F 50% 29.94 in 10.0 mi WNW 12.7 mph 19.6 mph N/A   Clear
1:15 PM 48.2 °F - 28.4 °F 46% 29.93 in 10.0 mi WNW 11.5 mph 20.7 mph N/A   Clear
1:35 PM 50.0 °F - 28.4 °F 43% 29.93 in 10.0 mi WNW 15.0 mph 21.9 mph N/A   Clear
1:55 PM 51.8 °F - 28.4 °F 41% 29.93 in 10.0 mi WNW 12.7 mph 21.9 mph N/A   Clear
2:15 PM 51.8 °F - 26.6 °F 38% 29.93 in 10.0 mi WNW 10.4 mph 24.2 mph N/A   Clear
2:35 PM 51.8 °F - 26.6 °F 38% 29.93 in 10.0 mi WNW 11.5 mph 24.2 mph N/A   Clear
2:55 PM 51.8 °F - 26.6 °F 38% 29.93 in 10.0 mi WNW 13.8 mph 20.7 mph N/A   Clear
3:15 PM 51.8 °F - 26.6 °F 38% 29.94 in 10.0 mi WNW 17.3 mph 24.2 mph N/A   Clear
3:35 PM 51.8 °F - 26.6 °F 38% 29.94 in 10.0 mi WNW 16.1 mph 24.2 mph N/A   Clear
3:55 PM 51.8 °F - 26.6 °F 38% 29.94 in 10.0 mi WNW 12.7 mph 21.9 mph N/A   Clear
4:15 PM 51.8 °F - 26.6 °F 38% 29.94 in 10.0 mi West 11.5 mph 19.6 mph N/A   Clear
4:35 PM 50.0 °F - 26.6 °F 40% 29.94 in 10.0 mi West 8.1 mph - N/A   Clear
4:55 PM 50.0 °F - 24.8 °F 37% 29.95 in 10.0 mi WNW 11.5 mph 18.4 mph N/A   Clear
5:15 PM 48.2 °F - 24.8 °F 40% 29.96 in 10.0 mi WNW 11.5 mph 18.4 mph N/A   Clear
5:35 PM 48.2 °F - 24.8 °F 40% 29.97 in 10.0 mi West 6.9 mph 16.1 mph N/A   Clear
5:55 PM 46.4 °F 42.9 °F 24.8 °F 43% 29.98 in 10.0 mi West 6.9 mph 16.1 mph N/A   Clear
6:15 PM 44.6 °F 38.4 °F 24.8 °F 46% 29.99 in 10.0 mi WNW 12.7 mph 17.3 mph N/A   Clear
6:35 PM 44.6 °F 39.7 °F 24.8 °F 46% 29.99 in 10.0 mi WNW 9.2 mph - N/A   Clear
6:55 PM 44.6 °F 38.4 °F 24.8 °F 46% 30.00 in 10.0 mi WNW 12.7 mph 17.3 mph N/A   Clear
7:15 PM 44.6 °F 39.7 °F 24.8 °F 46% 30.01 in 10.0 mi WNW 9.2 mph 16.1 mph N/A   Clear
7:35 PM 42.8 °F 38.0 °F 24.8 °F 49% 30.01 in 10.0 mi WNW 8.1 mph - N/A   Clear
7:55 PM 42.8 °F 39.3 °F 24.8 °F 49% 30.02 in 10.0 mi WNW 5.8 mph - N/A   Clear
8:15 PM 41.0 °F - 24.8 °F 53% 30.03 in 10.0 mi Calm Calm - N/A   Clear
8:35 PM 39.2 °F 37.0 °F 24.8 °F 56% 30.04 in 10.0 mi West 3.5 mph - N/A   Clear
8:55 PM 37.4 °F 31.4 °F 24.8 °F 60% 30.04 in 10.0 mi WNW 8.1 mph - N/A   Clear
9:15 PM 39.2 °F 33.0 °F 24.8 °F 56% 30.04 in 10.0 mi WNW 9.2 mph - N/A   Clear
9:35 PM 39.2 °F 33.0 °F 24.8 °F 56% 30.05 in 10.0 mi NW 9.2 mph - N/A   Clear
9:55 PM 39.2 °F 35.9 °F 24.8 °F 56% 30.05 in 10.0 mi West 4.6 mph - N/A   Clear
10:15 PM 37.4 °F 34.9 °F 24.8 °F 60% 30.06 in 10.0 mi West 3.5 mph - N/A   Clear
10:35 PM 37.4 °F 32.8 °F 24.8 °F 60% 30.05 in 10.0 mi WNW 5.8 mph - N/A   Clear
10:55 PM 37.4 °F 32.1 °F 24.8 °F 60% 30.05 in 10.0 mi WNW 6.9 mph - N/A   Clear
11:15 PM 35.6 °F - 24.8 °F 65% 30.05 in 10.0 mi Calm Calm - N/A   Clear
11:35 PM 35.6 °F 32.8 °F 24.8 °F 65% 30.05 in 10.0 mi WNW 3.5 mph - N/A   Clear
11:55 PM 33.8 °F 28.6 °F 24.8 °F 70% 30.05 in 10.0 mi NNW 5.8 mph - N/A   Clear